Погода в Щербиновке

Россия / Кемеровская область (Кузбасс)     56°10′37″N   85°58′37″E
темп.,
°C
ветер,
м/с
пор.,
м/с
влажн.,
%
обл.,
%
осадки,
мм/ч
давл.,
гПа
погр.,
м
18 мая, вт
вт1801:00+9ю358899 0.0 101192
04:00+10ююз31091100 0.0 1007183
07:00+11ю5998100 6.4 1002242
10:00+13ссз4998100 3.2 1002625
13:00+14ссв3485100 4.5 1004713
16:00+12ссв448498 0.1 1006577
19:00+9св3590100 0.2 1008382
22:00+8всв4892100 0.0 1008414
19 мая, ср
ср1901:00+8св3791100 0.0 1008379
04:00+7св3889100 0.1 1007353
07:00+6св41174100 0.1 1007449
10:00+9ссв57495 0.0 1008814
13:00+11с6744100 0.0 10091827
16:00+11с6737100 0.0 10092433
19:00+9с574298 0.0 10112047
22:00+4с39575 0.0 1013315
20 мая, чт
чт2001:00+1ссз27675 0.0 1013150
04:00−1ссз26735 0.0 1013124
07:00+1с496396 0.0 1014491
10:00+4с5558100 0.5 10151497
13:00+7с5634100 0.9 10152813
16:00+7с5746100 0.0 10162084
19:00+6с4960100 0.6 10171560
22:00+3с51090100 0.6 1019741
21 мая, пт
пт2101:00+3ссв3109198 2.0 1020644
04:00+1зсз249699 0.1 102193
07:00+2ссз258018 0.1 1023189
10:00+8ссз35570 0.0 1024696
13:00+13ссз343476 0.0 10232084
16:00+14зсз4530100 0.0 10232282
19:00+12зсз3542100 0.0 10241246
22:00+8юз2354100 0.0 102546
22 мая, сб
сб2201:00+7юз41158100 0.0 1024305
04:00+7юз41261100 0.0 1022366
07:00+7зюз61263100 0.0 10211009
10:00+6юз81592100 2.5 1019835
13:00+6юз71392100 3.7 1019872
16:00+6юз51193100 0.2 1018536
19:00+7юз51094100 0.3 1018360
22:00+7юз489738 0.2 1019189